Regional Weather Roundup
Issued by NWS

Home | Current Version | Previous Version | Text Only | Print | Product List | Glossary Off
Versions: 1 2 3 4 5 6 7 8 9 10 11 12 13 14 15 16 17 18 19 20 21 22 23 24 25 26 27

000
ASUS45 KCYS 210110
RWRWY

WYOMING REGIONAL WEATHER ROUNDUP
NATIONAL WEATHER SERVICE CHEYENNE WY
700 PM MDT FRI OCT 20 2017

NOTE:  "FAIR" INDICATES FEW OR NO CLOUDS BELOW 12,000 FEET
WITH NO SIGNIFICANT WEATHER AND/OR OBSTRUCTIONS TO VISIBILITY.

WYZ001-210200-
YELLOWSTONE NATIONAL PARK

CITY           SKY/WX    TMP DP  RH WIND       PRES   REMARKS
LK YELLOWSTONE   N/A     27  25  92 VRB3      29.71R
W YELLOWSTONE  NOT AVBL

$$
WYZ002>013-054>058-071-098>099-210200-
NORTHERN WYOMING

CITY           SKY/WX    TMP DP  RH WIND       PRES   REMARKS
JACKSON        CLOUDY    33  26  75 S18G29    29.76S WCI  22
CODY           FAIR      46  20  35 VRB6      29.57R
GREYBULL       FAIR      56  26  31 NW25G33   29.50R
WORLAND        FAIR      58  22  24 SW22      29.50R
SHERIDAN       FAIR      57  39  51 NW10      29.38R
BUFFALO        FAIR      60  30  32 SW9G21    29.43R
GILLETTE       FAIR      66  24  20 SW14      29.37R
HULETT         FAIR      64  32  29 S10       29.38R
NEWCASTLE      FAIR      63  28  27 SE8       29.41F

$$
WYZ014>020-022>026-101>103-210200-
CENTRAL WYOMING

CITY           SKY/WX    TMP DP  RH WIND       PRES   REMARKS
BIG PINEY      FAIR      33  15  47 NW16      29.80R WCI  23
PINEDALE       MOCLDY    32  18  55 W9        29.79S WCI  24
DUBOIS         FAIR      32  14  47 NW20G32   29.69R WCI  20
LANDER         FAIR      47  22  37 NW9G17    29.56F
RIVERTON       FAIR      49  21  33 W17       29.61R
CASPER         FAIR      58  28  32 W26G36    29.53R
DOUGLAS        FAIR      63  27  25 SW12      29.49R

$$
WYZ021-027>030-104>119-210200-
SOUTHERN WYOMING

CITY           SKY/WX    TMP DP  RH WIND       PRES   REMARKS
EVANSTON       FAIR      32  26  78 W16       29.88R WCI  21
FORT BRIDGER   MOCLDY    34  29  82 W22G31    29.87R WCI  22
ROCK SPRINGS   CLOUDY    37  24  59 W24G37    29.79R WCI  26
DIXON          RAIN      42  35  76 NW24G33   29.79R
RAWLINS        CLOUDY    46  25  43 W35G47    29.69R
SARATOGA       RAIN      45  34  65 W24G38    29.73R
LARAMIE        MOCLDY    50  24  36 SW6       29.63R
CHEYENNE       FAIR      57  30  35 SW7       29.57S
TORRINGTON     FAIR      66  33  29 S7        29.43R
PINE BLUFFS    FAIR      57  30  35 S7        29.53R

$$




USA.gov is the U.S. government's official web portal to all federal, state and local government web resources and services.